Regional Weather Roundup
Issued by NWS

Home | Current Version | Previous Version | Text Only | Print | Product List | Glossary On
Versions: 1 2 3 4 5 6 7 8 9 10 11 12 13 14 15 16 17 18 19 20 21 22 23 24 25 26 27
000
ASUS46 KPQR 231910
RWROR

OREGON REGIONAL WEATHER ROUNDUP
NATIONAL WEATHER SERVICE PORTLAND OR
1200 PM PDT MON APR 23 2018

NOTE: "FAIR" INDICATES FEW OR NO CLOUDS BELOW 12,000 FEET WITH
NO SIGNIFICANT WEATHER AND/OR OBSTRUCTIONS TO VISIBILITY.

ORZ001>013-232000-
NORTHWEST OREGON


CITY           SKY/WX    TMP DP  RH WIND       PRES   REMARKS
ASTORIA        SUNNY     64  40  41 NE15      30.25F
TILLAMOOK      SUNNY     68  32  26 NE14      30.21F
NEWPORT        SUNNY     68  34  28 NE8G16    30.19F
PORTLAND       MOSUNNY   69  32  25 E17G25    30.23F
VANCOUVER WA   SUNNY     68  29  23 E14G22    30.23F
SCAPPOOSE      SUNNY     67  34  29 E8        30.25F
HILLSBORO      SUNNY     66  36  32 NE12G22   30.23F
AURORA         SUNNY     70  33  25 NE10G20   30.21F
MCMINNVILLE    SUNNY     66  37  34 N14       30.21F
SALEM          SUNNY     68  38  33 N8        30.19F
CORVALLIS      SUNNY     65  40  39 NE10      30.19F
EUGENE         MOSUNNY   61  45  55 N10       30.18F
$$

ORZ021-028-232000-
SOUTHWEST OREGON


CITY           SKY/WX    TMP DP  RH WIND       PRES   REMARKS
NORTH BEND     SUNNY     70  42  36 NE10      30.09F
BROOKINGS      SUNNY     77  39  25 SW6       30.03R
ROSEBURG       SUNNY     62  41  46 S6        30.13F
SEXTON SUMMIT  SUNNY     61  33  35 VRB5      30.16S
GRANTS PASS    FAIR      66  32  28 CALM      30.14F
MEDFORD        SUNNY     67  37  33 NE5       30.13F
$$

ORZ014>016-041-232000-
COLUMBIA GORGE


CITY           SKY/WX    TMP DP  RH WIND       PRES   REMARKS
TROUTDALE      SUNNY     67  35  30 E15       30.24F
HOOD RIVER     SUNNY     63  30  29 E7G18     30.35F
THE DALLES     SUNNY     64  33  31 VRB6      30.36F
$$

ORZ029>031-041-044-049-050-061>064-502-503-505>511-232000-
EASTERN OREGON


CITY           SKY/WX    TMP DP  RH WIND       PRES   REMARKS
MADRAS         SUNNY     55  28  35 N10G16    30.35F
REDMOND        SUNNY     56  23  27 MISG      30.31F
BEND           SUNNY     55  18  22 VRB5G12   30.31F
PRINEVILLE     SUNNY     55  21  26 VRB5      30.32F
KLAMATH FALLS  SUNNY     57  16  20 NE9G18    30.24F
LAKEVIEW       SUNNY     56  24  29 N14       30.27F
HERMISTON      SUNNY     62  30  29 N8        30.37F
PENDLETON      SUNNY     60  27  28 VRB7      30.35F
JOHN DAY       SUNNY     53  26  34 NW3       30.30F
MEACHAM        SUNNY     51  19  28 NE6       30.33S
LA GRANDE      SUNNY     57  23  26 N13       30.31F
BAKER CITY     SUNNY     58  20  22 NW15      30.29F
BURNS          SUNNY     51  14  22 VRB5      30.29F
ROME             N/A     54  15  21 VRB3      30.26F
ONTARIO        SUNNY     63  26  24 NW9       30.27S
$$




USA.gov is the U.S. government's official web portal to all federal, state and local government web resources and services.